Previsão horária em Almametevo

Hoje, 22 Janeiro, Sexta-feira

Tempo Temperatura Precipitação Vento Pressão Humidade
00:00 -19°C° 0 mm 2 m/s 750 mmHg 98%
01:00 -19°C° 0 mm 2 m/s 750 mmHg 98%
02:00 -20°C° 0 mm 2 m/s 750 mmHg 99%
03:00 -20°C° 0 mm 2 m/s 750 mmHg 99%
04:00 -19°C° 0 mm 1 m/s 750 mmHg 99%
05:00 -19°C° 0 mm 1 m/s 751 mmHg 99%
06:00 -20°C° 0 mm 1 m/s 751 mmHg 99%
07:00 -20°C° 0 mm 1 m/s 751 mmHg 98%
08:00 -20°C° 0 mm 1 m/s 751 mmHg 98%
09:00 -20°C° 0 mm 1 m/s 752 mmHg 98%
10:00 -19°C° 0 mm 1 m/s 752 mmHg 96%
11:00 -18°C° 0 mm 1 m/s 753 mmHg 95%
12:00 -17°C° 0 mm 1 m/s 753 mmHg 94%
13:00 -18°C° 0 mm 1 m/s 754 mmHg 94%
14:00 -19°C° 0 mm 1 m/s 754 mmHg 95%
15:00 -20°C° 0 mm 1 m/s 754 mmHg 95%
16:00 -24°C° 0 mm 2 m/s 755 mmHg 95%
17:00 -25°C° 0 mm 2 m/s 755 mmHg 95%
18:00 -27°C° 0 mm 2 m/s 755 mmHg 95%
19:00 -27°C° 0 mm 2 m/s 756 mmHg 95%
20:00 -27°C° 0 mm 2 m/s 756 mmHg 95%
21:00 -26°C° 0 mm 2 m/s 757 mmHg 95%
22:00 -26°C° 0 mm 2 m/s 757 mmHg 95%
23:00 -25°C° 0 mm 2 m/s 757 mmHg 94%

Amanhã, 23 Janeiro, Sábado

Tempo Temperatura Precipitação Vento Pressão Humidade
00:00 -25°C° 0 mm 2 m/s 757 mmHg 94%
01:00 -25°C° 0 mm 3 m/s 757 mmHg 93%
02:00 -25°C° 0 mm 3 m/s 757 mmHg 93%
03:00 -24°C° 0 mm 3 m/s 757 mmHg 92%
04:00 -25°C° 0 mm 4 m/s 757 mmHg 93%
05:00 -24°C° 0 mm 4 m/s 756 mmHg 93%
06:00 -24°C° 0 mm 4 m/s 756 mmHg 93%
07:00 -23°C° 0.2 mm 4 m/s 756 mmHg 94%
08:00 -22°C° 0.2 mm 5 m/s 756 mmHg 95%
09:00 -22°C° 0.2 mm 5 m/s 755 mmHg 95%
10:00 -20°C° 0.3 mm 5 m/s 755 mmHg 95%
11:00 -19°C° 0.3 mm 5 m/s 755 mmHg 94%
12:00 -18°C° 0.3 mm 5 m/s 754 mmHg 93%
13:00 -17°C° 0.2 mm 5 m/s 754 mmHg 93%
14:00 -15°C° 0.2 mm 4 m/s 753 mmHg 93%
15:00 -14°C° 0.2 mm 4 m/s 753 mmHg 94%
16:00 -14°C° 0.2 mm 4 m/s 753 mmHg 94%
17:00 -12°C° 0.2 mm 4 m/s 752 mmHg 94%
18:00 -12°C° 0.2 mm 4 m/s 752 mmHg 94%
19:00 -10°C° 0.3 mm 3 m/s 752 mmHg 95%
20:00 -8°C° 0.3 mm 3 m/s 752 mmHg 95%
21:00 -7°C° 0.3 mm 3 m/s 752 mmHg 96%
22:00 -5°C° 0.2 mm 2 m/s 752 mmHg 97%
23:00 -3°C° 0.2 mm 2 m/s 752 mmHg 98%

Depois de amanhã, 24 Janeiro, Domingo

Tempo Temperatura Precipitação Vento Pressão Humidade
00:00 -1°C° 0.2 mm 2 m/s 752 mmHg 98%
01:00 -1°C° 0.2 mm 2 m/s 752 mmHg 99%
02:00 +1°C° 0.2 mm 2 m/s 752 mmHg 99%
03:00 +2°C° 0.2 mm 2 m/s 752 mmHg 99%
04:00 +1°C° 0.1 mm 3 m/s 752 mmHg 99%
05:00 +1°C° 0.1 mm 3 m/s 752 mmHg 99%
06:00 +1°C° 0.1 mm 3 m/s 752 mmHg 99%
07:00 0°C° 0.2 mm 3 m/s 753 mmHg 98%
08:00 0°C° 0.2 mm 3 m/s 753 mmHg 98%
09:00 -1°C° 0.2 mm 4 m/s 753 mmHg 98%
10:00 0°C° 0 mm 3 m/s 753 mmHg 98%
11:00 0°C° 0 mm 3 m/s 754 mmHg 99%
12:00 0°C° 0 mm 3 m/s 754 mmHg 99%
13:00 0°C° 0 mm 3 m/s 754 mmHg 99%
14:00 0°C° 0 mm 3 m/s 754 mmHg 99%
15:00 +1°C° 0 mm 2 m/s 754 mmHg 99%
16:00 +1°C° 0.1 mm 2 m/s 754 mmHg 99%
17:00 +1°C° 0.1 mm 2 m/s 755 mmHg 99%
18:00 +1°C° 0.1 mm 2 m/s 755 mmHg 99%
19:00 +1°C° 0.1 mm 2 m/s 755 mmHg 99%
20:00 +1°C° 0.1 mm 2 m/s 755 mmHg 99%
21:00 +1°C° 0.1 mm 2 m/s 755 mmHg 98%
22:00 +1°C° 0 mm 2 m/s 756 mmHg 98%
23:00 +1°C° 0 mm 2 m/s 756 mmHg 98%

25 Janeiro, Segunda-feira

Tempo Temperatura Precipitação Vento Pressão Humidade
00:00 +1°C° 0 mm 2 m/s 756 mmHg 98%
01:00 0°C° 0.1 mm 3 m/s 756 mmHg 98%
02:00 0°C° 0.1 mm 3 m/s 756 mmHg 98%
03:00 0°C° 0.1 mm 3 m/s 756 mmHg 98%
04:00 0°C° 0.1 mm 3 m/s 756 mmHg 98%
05:00 0°C° 0.1 mm 3 m/s 756 mmHg 97%
06:00 0°C° 0.1 mm 3 m/s 756 mmHg 97%
07:00 -1°C° 0.2 mm 4 m/s 757 mmHg 97%
08:00 -1°C° 0.2 mm 4 m/s 757 mmHg 97%
09:00 -1°C° 0.2 mm 4 m/s 757 mmHg 96%
10:00 -1°C° 0.1 mm 4 m/s 757 mmHg 96%
11:00 -2°C° 0.1 mm 4 m/s 757 mmHg 96%
12:00 -2°C° 0.1 mm 4 m/s 758 mmHg 95%
13:00 -2°C° 0 mm 4 m/s 758 mmHg 94%
14:00 -3°C° 0 mm 4 m/s 758 mmHg 93%
15:00 -3°C° 0 mm 4 m/s 758 mmHg 92%
16:00 -4°C° 0 mm 4 m/s 758 mmHg 92%
17:00 -5°C° 0 mm 4 m/s 758 mmHg 93%
18:00 -7°C° 0 mm 4 m/s 758 mmHg 93%
19:00 -7°C° 0 mm 4 m/s 758 mmHg 94%
20:00 -7°C° 0 mm 4 m/s 758 mmHg 95%
21:00 -7°C° 0 mm 5 m/s 758 mmHg 97%
22:00 -6°C° 0 mm 5 m/s 758 mmHg 96%
23:00 -5°C° 0 mm 4 m/s 758 mmHg 95%

26 Janeiro, Terça-feira

Tempo Temperatura Precipitação Vento Pressão Humidade
00:00 -4°C° 0 mm 4 m/s 758 mmHg 94%
01:00 -4°C° 0 mm 4 m/s 758 mmHg 94%
02:00 -4°C° 0 mm 4 m/s 758 mmHg 94%
03:00 -4°C° 0 mm 4 m/s 758 mmHg 94%
04:00 -4°C° 0 mm 4 m/s 758 mmHg 94%
05:00 -4°C° 0 mm 4 m/s 758 mmHg 94%
06:00 -4°C° 0 mm 4 m/s 757 mmHg 94%
07:00 -4°C° 0 mm 4 m/s 757 mmHg 94%
08:00 -4°C° 0 mm 4 m/s 757 mmHg 94%
09:00 -4°C° 0 mm 4 m/s 757 mmHg 94%
10:00 -4°C° 0 mm 4 m/s 757 mmHg 94%
11:00 -4°C° 0 mm 4 m/s 757 mmHg 93%
12:00 -4°C° 0 mm 4 m/s 757 mmHg 93%
13:00 -4°C° 0 mm 4 m/s 757 mmHg 93%
14:00 -4°C° 0 mm 4 m/s 757 mmHg 92%
15:00 -4°C° 0 mm 3 m/s 757 mmHg 92%
16:00 -4°C° 0 mm 4 m/s 757 mmHg 92%
17:00 -4°C° 0 mm 4 m/s 757 mmHg 93%
18:00 -5°C° 0 mm 4 m/s 757 mmHg 94%
19:00 -5°C° 0 mm 4 m/s 757 mmHg 94%
20:00 -5°C° 0 mm 4 m/s 757 mmHg 94%
21:00 -5°C° 0 mm 4 m/s 756 mmHg 93%
22:00 -5°C° 0 mm 4 m/s 756 mmHg 93%
23:00 -6°C° 0 mm 5 m/s 756 mmHg 93%

27 Janeiro, Quarta-feira

Tempo Temperatura Precipitação Vento Pressão Humidade
00:00 -6°C° 0 mm 5 m/s 756 mmHg 93%
01:00 -6°C° 0 mm 5 m/s 756 mmHg 93%
02:00 -6°C° 0 mm 5 m/s 755 mmHg 93%
03:00 -6°C° 0 mm 5 m/s 755 mmHg 93%
04:00 -6°C° 0 mm 5 m/s 755 mmHg 93%
05:00 -6°C° 0 mm 5 m/s 754 mmHg 93%
06:00 -6°C° 0 mm 5 m/s 754 mmHg 93%
07:00 -6°C° 0.5 mm 5 m/s 754 mmHg 94%
08:00 -6°C° 0.5 mm 5 m/s 754 mmHg 94%
09:00 -6°C° 0.5 mm 5 m/s 754 mmHg 95%
10:00 -6°C° 0.4 mm 5 m/s 754 mmHg 95%
11:00 -6°C° 0.4 mm 5 m/s 754 mmHg 94%
12:00 -6°C° 0.4 mm 5 m/s 754 mmHg 93%
13:00 -5°C° 0 mm 5 m/s 754 mmHg 93%
14:00 -5°C° 0 mm 5 m/s 754 mmHg 93%
15:00 -4°C° 0 mm 5 m/s 754 mmHg 92%
16:00 -4°C° 0 mm 5 m/s 753 mmHg 93%
17:00 -4°C° 0 mm 5 m/s 753 mmHg 93%
18:00 -4°C° 0 mm 5 m/s 753 mmHg 93%
19:00 -5°C° 0.1 mm 5 m/s 753 mmHg 94%
20:00 -5°C° 0.1 mm 5 m/s 753 mmHg 95%
21:00 -4°C° 0.1 mm 4 m/s 753 mmHg 95%
22:00 -5°C° 0.6 mm 5 m/s 753 mmHg 95%
23:00 -6°C° 0.6 mm 5 m/s 753 mmHg 95%
Mostrar mais

Necessitamos do seu Consentimento

A Meteoprog e os seus Fornecedores de Serviços podem armazenar e aceder a dados pessoais como cookies, identificadores do dispositivo ou outras tecnologias semelhantes existentes no seu dispositivo e processar estes dados para personalizar conteúdos e anúncios, assim como funcionalidades nas redes sociais e análise de tráfego.

  • Armazenar e/ou aceder a informações no seu dispositivo

    Os cookies, identificadores do dispositivo ou outras informações podem ser armazenados ou acedidos no seu dispositivo, para os fins acima indicados.

  • Anúncios e conteúdos personalizados, medição de anúncios e conteúdos, dados sobre o público-alvo e desenvolvimento de produtos

    Os anúncios e os conteúdos podem ser personalizados com base num perfil. Podem ser adicionados dados adicionais para uma maior personalização dos anúncios e dos conteúdos. A eficácia dos anúncios e dos conteúdos pode ser medida. Podem ser obtidas informações sobre o público que visualizou os anúncios e os conteúdos. Estes dados podem ser usados para desenvolver ou melhorar sistemas, softwares ou a experiência do utilizador.

Ao clicar em "Eu concordo”, permitirá o uso de cookies, identificadores do dispositivo e web beacons mencionados ou outras tecnologias semelhantes. As configurações do navegador do seu dispositivo podem ser alteradas.

Para certos fins, podem ser invocados interesses legítimos ao invés de consentimento. Pode ler mais informação sobre este assunto na nossa Política de Privacidade e Cookies.